Location: Bacea
(45.9500°N, 22.6667°E)
Time: 22:07:32
(UTC+00:00)

Cosmos 1300 - Pass Details

Date: 29 May 2022
Orbit: 506 x 508 km, 82.5° (Epoch: 01 July)

Event Time Altitude Azimuth Distance (km) Brightness Sun altitude
Rises 22:11:27 0° 1° (N) 2,623 7.8 -22.2°
Reaches altitude 10° 22:13:51 10° 15° (NNE) 1,732 6.4 -22.3°
Maximum altitude 22:17:05 26° 73° (ENE) 1,030 4.3 -22.3°
Enters shadow 22:17:33 25° 86° (E) 1,048 4.2 -22.3°
